Wind_Speed
24 25 25 24 24 24 24 24 26 27 29 31 33 34 35 35 35 34 33 32 33 34 35 36 38 40 42 44 46 49 51 53 55 57 58 57 58 58 59 60 62 63 64
22 22 21 21 21 22 23 25 28 31 33 35 35 35 34 33 33 33 33 34 36 37 39 40 43 45 47 50 52 54 56 57 58 61 62 62 60 59 59 61 62 62 63
19 20 21 21 21 22 25 28 31 33 34 34 33 31 31 32 33 34 35 37 39 41 43 45 47 50 51 53 54 56 58 59 59 62 65 67 67 66 64 64 64 64 64
18 20 21 22 23 25 28 30 32 33 32 31 31 31 32 34 35 37 39 41 43 45 47 48 49 50 52 54 56 58 60 62 64 66 68 71 74 76 75 73 72 71 69
19 21 23 25 27 29 31 32 32 31 31 32 32 33 35 36 38 40 42 43 44 46 47 50 52 54 57 59 61 64 66 69 71 74 76 78 79 81 84 83 81 81 80
22 24 27 29 31 32 33 32 32 32 33 34 35 37 38 39 40 41 42 44 46 49 53 56 59 63 65 68 70 72 74 77 79 81 83 84 86 87 89 91 90 89 87
25 27 29 31 33 34 33 33 33 34 35 37 38 39 40 40 41 43 45 48 51 55 59 62 65 68 71 74 76 78 80 82 84 86 88 90 92 93 95 97 98 98 95
28 29 30 32 33 34 34 34 36 37 39 39 40 40 40 41 44 47 50 54 58 61 65 68 71 73 75 78 80 82 84 87 90 92 95 96 97 98 98 99 100 101 99
28 27 28 31 32 33 35 37 38 39 40 40 40 41 42 46 49 53 57 61 65 69 72 75 76 78 81 83 85 88 91 94 97 99 101 101 100 99 97 95 93 92 94
26 26 28 31 33 35 37 38 38 39 39 40 41 44 47 51 55 59 63 66 70 74 76 78 80 82 85 88 91 94 98 100 102 103 103 101 98 94 90 85 80 78 79
26 27 30 32 34 36 36 36 37 38 39 41 44 47 52 56 60 64 68 71 74 77 79 81 83 86 89 93 96 99 101 103 103 102 99 94 90 83 78 73 71 69 70
28 29 31 33 34 35 35 36 37 39 42 45 49 53 57 62 66 69 72 74 77 79 81 84 87 91 94 98 100 101 101 100 97 93 88 82 77 72 69 68 67 67 68
29 30 32 33 34 35 36 37 40 44 48 52 56 60 63 67 69 71 73 75 78 81 84 89 93 96 98 99 99 97 94 91 87 82 77 74 72 70 69 70 70 71 72
30 32 33 34 35 36 39 43 47 51 55 59 62 65 68 70 72 73 75 78 81 86 90 94 97 98 98 95 92 89 85 81 78 76 75 75 75 75 76 76 77 78 79
31 33 34 35 38 42 46 50 54 57 60 63 66 69 70 72 73 76 79 83 87 92 95 97 96 94 91 87 84 81 79 77 77 77 79 80 82 84 85 86 86 87 88
32 34 36 40 43 47 51 55 58 60 63 65 68 70 72 74 77 80 84 88 92 95 96 94 91 87 83 80 80 81 82 82 83 84 85 87 89 91 92 92 93 93 94
35 37 41 45 48 52 55 58 60 62 64 67 70 72 74 77 81 85 89 92 94 94 92 88 84 80 79 80 83 86 89 89 90 89 89 88 87 88 89 89 89 88 87
39 42 46 49 52 55 57 59 62 64 67 70 73 75 78 81 85 89 93 94 93 90 86 81 79 78 81 85 89 91 90 87 84 81 78 77 76 76 77 78 76 73 70
43 46 49 51 54 57 59 62 65 67 70 73 75 78 81 85 89 92 92 91 88 83 79 76 78 82 85 89 89 87 83 77 71 67 66 65 65 63 63 63 60 57 53
46 49 51 54 56 59 62 65 68 70 72 75 78 81 85 88 90 91 89 86 82 78 76 77 81 87 89 87 82 78 74 69 64 60 58 58 57 55 53 51 49 45 41
49 52 55 58 60 63 66 68 70 71 74 76 80 84 87 89 89 87 84 81 77 76 77 80 84 87 87 81 75 71 68 63 59 56 53 52 50 49 46 45 43 40 36
53 56 59 61 64 66 67 68 70 72 75 79 83 86 88 88 86 82 79 77 76 77 80 83 85 85 80 74 69 65 61 58 56 52 49 48 47 45 43 41 39 37 33
58 60 62 64 65 66 67 69 71 73 77 81 84 86 86 84 81 78 76 75 76 80 83 86 86 81 73 67 64 59 56 53 51 47 44 44 44 43 41 39 37 33 27
61 62 63 64 64 66 67 69 72 76 80 83 85 85 83 80 76 75 75 76 78 81 84 86 83 77 69 64 60 56 53 51 48 44 42 42 42 42 39 36 33 28 20
62 62 62 62 63 66 68 71 75 79 82 84 85 83 80 77 74 73 73 75 78 82 85 84 80 73 67 63 59 56 53 51 47 44 42 41 40 37 34 31 27 20 13
60 60 60 61 64 67 70 74 78 82 83 84 82 79 77 74 73 72 71 73 77 80 82 79 74 69 66 63 58 55 52 49 46 43 40 39 37 33 28 23 17 12 9
Wind_Direction
274 274 273 271 270 268 266 268 274 280 286 291 293 293 293 292 292 292 292 293 294 294 295 294 294 293 293 294 293 294 294 295 294 294 293 293 292 292 290 289 289 288 288
273 272 270 268 266 263 263 268 275 282 288 291 292 291 291 290 290 290 291 292 292 293 293 294 294 295 296 296 297 297 297 297 297 296 295 294 293 292 292 291 291 290 288
271 272 271 268 267 267 270 275 281 287 290 291 290 289 288 288 289 289 290 290 291 292 293 295 296 297 298 299 299 299 299 298 298 298 298 297 296 294 293 291 290 289 288
269 271 271 270 271 274 278 283 287 289 290 288 287 286 287 287 289 290 291 292 293 295 297 298 299 299 299 299 299 298 298 298 298 298 298 297 298 297 295 294 292 290 288
267 270 272 274 277 280 284 287 288 288 287 286 285 285 286 288 289 291 292 294 296 297 299 299 300 300 300 300 299 299 299 298 298 297 297 297 297 296 295 293 292 291 290
269 273 276 279 281 283 285 287 287 286 285 285 285 287 289 291 293 295 297 298 300 301 302 303 303 303 302 302 301 300 299 299 298 298 297 297 297 296 295 294 292 290 288
274 277 280 282 283 284 285 286 285 285 285 286 288 290 293 295 296 298 299 300 302 303 304 304 303 303 302 301 300 299 299 299 299 299 299 299 298 297 296 295 293 291 289
276 280 282 282 282 283 284 284 284 284 286 289 292 294 296 298 299 301 302 303 304 304 303 303 302 302 301 300 300 299 300 300 300 300 300 299 298 297 296 295 294 292 290
277 279 280 280 281 282 283 283 285 288 290 293 297 299 300 302 303 304 305 305 305 305 305 304 304 303 303 302 302 302 303 302 302 301 300 299 298 297 296 295 294 293 291
274 275 275 277 280 282 283 285 289 292 295 297 299 301 302 304 305 305 306 306 306 306 306 306 305 305 304 304 304 303 303 302 301 300 299 298 297 296 295 294 293 291 290
270 273 277 280 281 282 285 288 291 294 296 299 301 302 304 305 306 307 307 307 307 307 307 306 305 305 305 304 304 303 302 301 300 299 298 296 295 294 293 292 291 289 289
274 278 280 280 281 283 286 290 294 297 299 301 303 304 306 307 308 308 309 309 308 307 306 306 305 305 305 305 304 303 302 301 299 298 297 295 294 293 292 292 291 290 289
279 280 279 281 284 287 292 296 299 301 302 304 306 307 308 309 310 309 309 307 307 306 306 307 307 307 307 306 306 305 303 301 300 298 296 294 293 292 292 291 290 289 288
278 279 281 285 290 294 298 301 302 304 306 307 308 309 309 310 309 308 307 307 307 308 308 309 309 309 309 309 307 306 304 302 301 298 295 293 292 291 290 289 288 287 286
278 281 287 293 297 300 302 303 305 306 308 308 309 309 309 308 308 308 308 309 310 310 311 312 312 312 311 310 309 307 306 304 301 298 296 293 292 291 290 288 287 286 285
283 289 295 298 301 302 304 305 306 307 308 308 308 308 308 308 309 310 310 311 312 313 313 314 314 313 312 311 310 308 307 304 302 299 296 294 292 290 289 287 286 285 284
290 295 298 300 302 303 304 305 306 307 307 307 308 309 309 310 311 312 312 313 314 315 315 315 315 314 313 312 310 308 306 305 303 301 299 297 295 292 290 287 286 284 284
293 296 298 300 301 302 304 305 305 306 307 308 309 310 311 312 313 313 314 315 316 316 316 316 315 314 314 312 311 309 308 308 306 305 304 303 300 297 294 291 288 285 283
294 296 298 300 301 303 303 304 306 307 308 310 310 311 312 313 314 315 315 316 317 317 316 315 315 316 316 315 314 313 312 312 311 311 311 309 307 303 299 296 293 290 286
295 297 299 300 301 302 303 305 306 308 309 310 311 312 314 315 315 316 317 317 317 316 315 317 318 319 319 318 317 316 315 315 316 316 315 313 311 309 307 304 301 298 293
296 298 299 300 301 302 303 304 306 308 309 311 312 314 315 317 317 318 317 316 315 315 316 319 320 321 320 319 318 317 317 317 318 319 318 316 315 315 314 311 308 305 303
297 298 299 301 301 302 303 305 307 309 311 312 314 316 318 318 318 318 317 316 316 317 319 320 321 321 321 319 319 319 318 319 320 321 320 319 318 318 317 314 311 309 308
298 300 301 302 302 303 305 307 310 311 313 315 317 319 319 319 318 317 316 316 317 319 320 321 322 322 321 320 320 320 319 319 319 320 320 320 320 318 316 313 311 311 310
300 301 302 302 304 305 307 309 311 313 315 318 319 319 319 319 317 317 317 318 319 320 321 322 323 323 322 321 321 320 319 318 318 318 318 319 320 319 317 314 313 313 313
301 302 302 303 305 307 309 312 314 315 317 319 319 319 319 318 317 317 318 319 320 322 323 324 324 323 322 323 322 321 320 320 319 318 319 321 321 318 315 313 313 315 317
301 302 303 305 307 309 311 313 315 317 318 319 319 319 318 317 317 317 317 319 321 323 324 324 323 322 322 322 322 320 319 319 319 319 320 321 322 320 317 315 314 318 327
Height
5802 5802 5801 5801 5801 5800 5800 5800 5800 5799 5797 5795 5792 5790 5787 5784 5782 5779 5777 5774 5771 5768 5765 5762 5758 5754 5751 5747 5743 5738 5734 5730 5724 5719 5717 5714 5710 5706 5702 5697 5692 5689 5684
5796 5796 5796 5796 5796 5796 5796 5795 5795 5793 5791 5788 5785 5783 5780 5777 5775 5772 5770 5767 5764 5760 5757 5753 5749 5745 5741 5736 5731 5726 5721 5717 5710 5704 5699 5698 5698 5693 5688 5682 5677 5673 5668
5791 5792 5792 5792 5792 5792 5791 5790 5789 5787 5785 5782 5779 5776 5773 5770 5768 5765 5762 5759 5755 5751 5747 5743 5739 5735 5730 5725 5720 5714 5708 5703 5698 5690 5684 5678 5676 5674 5674 5669 5664 5659 5654
5787 5787 5788 5788 5787 5786 5785 5784 5782 5780 5778 5775 5772 5769 5766 5763 5760 5757 5754 5750 5747 5742 5738 5734 5729 5724 5719 5713 5708 5702 5695 5689 5684 5677 5670 5663 5656 5651 5650 5650 5647 5642 5638
5782 5783 5783 5783 5782 5780 5778 5777 5775 5773 5771 5768 5765 5762 5759 5756 5753 5750 5746 5742 5738 5733 5729 5724 5718 5713 5707 5701 5694 5688 5681 5674 5667 5661 5654 5647 5639 5631 5624 5625 5625 5620 5617
5776 5777 5778 5777 5775 5773 5771 5769 5768 5766 5763 5760 5758 5755 5752 5748 5745 5741 5737 5732 5728 5723 5717 5711 5705 5698 5692 5685 5678 5671 5663 5655 5648 5641 5634 5626 5619 5611 5600 5595 5596 5595 5595
5771 5771 5771 5770 5768 5765 5764 5762 5760 5758 5755 5753 5750 5747 5743 5740 5736 5732 5727 5723 5717 5711 5705 5698 5691 5684 5676 5669 5661 5653 5645 5636 5628 5620 5611 5602 5593 5583 5574 5565 5561 5561 5564
5765 5765 5764 5763 5760 5758 5757 5754 5752 5750 5747 5745 5742 5738 5734 5730 5726 5721 5716 5711 5705 5698 5691 5684 5676 5668 5660 5652 5643 5635 5626 5617 5607 5598 5588 5578 5568 5557 5546 5536 5527 5523 5527
5759 5759 5758 5756 5754 5752 5749 5747 5744 5742 5739 5736 5733 5729 5725 5720 5715 5709 5703 5697 5690 5682 5675 5667 5658 5650 5641 5632 5622 5613 5604 5594 5583 5573 5563 5552 5542 5531 5520 5510 5499 5490 5485
5753 5752 5751 5749 5747 5744 5742 5740 5737 5734 5731 5727 5723 5719 5713 5708 5703 5697 5690 5682 5674 5666 5658 5649 5640 5630 5620 5610 5601 5591 5581 5570 5559 5548 5537 5526 5515 5506 5496 5487 5478 5468 5457
5747 5746 5744 5742 5739 5737 5734 5732 5729 5726 5722 5718 5713 5708 5702 5696 5690 5683 5675 5667 5658 5649 5640 5631 5621 5611 5600 5590 5579 5568 5557 5545 5534 5521 5510 5500 5490 5481 5473 5465 5458 5450 5440
5741 5739 5737 5735 5732 5729 5727 5724 5721 5717 5712 5707 5702 5696 5690 5683 5676 5668 5660 5651 5642 5632 5622 5612 5602 5591 5579 5567 5555 5544 5531 5518 5507 5496 5485 5475 5467 5459 5452 5445 5438 5432 5424
5734 5732 5729 5727 5724 5722 5719 5716 5712 5707 5702 5696 5690 5683 5676 5669 5661 5652 5644 5635 5625 5615 5604 5593 5581 5568 5555 5541 5528 5515 5503 5491 5481 5471 5462 5453 5445 5438 5431 5424 5417 5411 5404
5727 5724 5722 5719 5716 5714 5710 5706 5701 5695 5689 5683 5676 5669 5661 5653 5645 5636 5627 5618 5607 5596 5584 5570 5556 5542 5528 5513 5500 5488 5478 5468 5459 5450 5441 5432 5423 5415 5409 5402 5395 5387 5381
5719 5717 5714 5712 5709 5705 5700 5695 5690 5683 5677 5670 5662 5654 5645 5637 5628 5619 5609 5599 5587 5574 5560 5547 5532 5516 5501 5487 5475 5465 5456 5447 5439 5430 5420 5410 5400 5390 5382 5374 5368 5360 5352
5712 5710 5707 5704 5700 5695 5689 5684 5677 5670 5663 5655 5647 5638 5630 5621 5612 5602 5590 5578 5566 5551 5537 5522 5507 5493 5479 5466 5454 5442 5433 5424 5414 5404 5395 5385 5374 5363 5353 5344 5336 5329 5321
5705 5702 5698 5694 5689 5684 5678 5671 5664 5656 5648 5639 5631 5623 5614 5604 5594 5582 5570 5557 5544 5530 5514 5499 5485 5473 5460 5447 5435 5421 5409 5399 5387 5374 5363 5353 5342 5329 5319 5312 5305 5299 5293
5696 5693 5688 5683 5678 5671 5665 5657 5649 5641 5633 5624 5616 5606 5597 5586 5574 5562 5549 5535 5522 5507 5493 5480 5466 5455 5442 5428 5414 5398 5386 5373 5361 5348 5335 5322 5312 5300 5288 5280 5275 5271 5268
5686 5682 5677 5671 5665 5658 5651 5643 5635 5627 5618 5609 5599 5589 5579 5568 5555 5541 5527 5513 5500 5487 5474 5462 5449 5436 5423 5407 5390 5373 5361 5350 5340 5329 5315 5301 5290 5280 5267 5257 5252 5249 5247
5675 5671 5665 5659 5652 5645 5637 5630 5621 5612 5603 5593 5582 5572 5561 5548 5535 5520 5506 5492 5480 5468 5457 5446 5431 5415 5400 5385 5369 5352 5340 5331 5323 5314 5302 5288 5275 5264 5254 5244 5238 5234 5232
5664 5659 5653 5646 5639 5632 5624 5616 5607 5597 5587 5576 5565 5554 5541 5528 5514 5500 5486 5474 5462 5452 5441 5430 5416 5398 5381 5366 5352 5338 5325 5314 5307 5298 5288 5277 5265 5255 5246 5236 5229 5223 5220
5652 5646 5639 5632 5625 5618 5610 5601 5592 5582 5571 5560 5548 5535 5521 5507 5494 5481 5469 5456 5444 5433 5421 5410 5399 5383 5366 5350 5337 5326 5313 5302 5292 5284 5275 5265 5256 5247 5238 5230 5223 5217 5213
5638 5632 5625 5617 5610 5602 5593 5585 5576 5565 5554 5542 5529 5516 5503 5489 5476 5463 5452 5441 5428 5415 5403 5391 5379 5367 5352 5338 5325 5314 5304 5293 5283 5275 5266 5256 5247 5239 5232 5224 5216 5211 5207
5623 5616 5609 5601 5593 5585 5577 5569 5560 5548 5537 5525 5512 5499 5487 5474 5461 5448 5436 5424 5412 5400 5387 5373 5361 5349 5337 5325 5314 5303 5294 5284 5275 5266 5259 5250 5240 5231 5224 5217 5211 5206 5202
5608 5600 5593 5585 5577 5569 5560 5552 5542 5531 5520 5508 5495 5482 5469 5458 5447 5436 5423 5411 5400 5384 5369 5356 5343 5331 5322 5311 5299 5289 5280 5272 5264 5256 5250 5243 5235 5227 5219 5213 5207 5203 5201
5592 5585 5578 5570 5562 5553 5544 5535 5525 5514 5502 5491 5478 5465 5454 5443 5432 5422 5415 5402 5388 5375 5358 5342 5328 5317 5307 5296 5287 5278 5270 5262 5254 5247 5241 5235 5227 5220 5214 5209 5205 5202 5201